Regional Weather Roundup
Issued by NWS Charleston, SC

Current Version | Previous Version | Text Only | Print | Product List | Glossary Off
Versions: 1 2 3 4 5 6 7 8 9 10 11 12 13 14 15 16 17 18 19 20 21 22 23 24 25 26 27 28 29 30 31 32 33 34 35 36 37 38 39 40 41 42 43 44 45 46 47 48 49 50
000 ASUS42 KCHS 070912 RWRCHS REGIONAL WEATHER ROUNDUP NATIONAL WEATHER SERVICE CHARLESTON SC 500 AM EDT TUE JUL 07 2015 NOTE: "FAIR" INDICATES FEW OR NO CLOUDS BELOW 12,000 FEET WITH NO SIGNIFICANT WEATHER AND/OR OBSTRUCTIONS TO VISIBILITY. NOT ALL STATIONS ARE QUALITY CONTROLLED BY THE NATIONAL WEATHER SERVICE. USE DATA WITH CAUTION...ESPECIALLY DEWPOINT OBSERVATIONS. SCZ027-030-031-034>040-042>050-071000- ...SOUTHEAST SOUTH CAROLINA... CITY SKY/WX TMP DP RH WIND PRES REMARKS N CHARLESTON PTCLDY 75 72 90 CALM 30.11S WATERFRONT PAR N/A 78 75 90 CALM 30.09R MOUNT PLEASANT LGT RAIN 73 72 94 CALM 30.11S JOHNS ISLAND FAIR 75 73 94 CALM 30.11S PINOPOLIS NOT AVBL MONCKS CORNER FAIR 73 70 88 CALM 30.11S FOG SUMMERVILLE FAIR 72 72 100 CALM 30.12S BEAUFORT MCAS PTCLDY 74 71 91 SW5 30.11S BEAUFORT ARPT FAIR 75 72 88 CALM 30.11R HILTON HEAD IS PTCLDY 75 73 94 CALM 30.12S WALTERBORO SUNNY 70 68 94 CALM 30.12R ALLENDALE FAIR 72 72 100 CALM 30.10S ...SOUTHERN MIDLANDS AND PEE DEE... CITY SKY/WX TMP DP RH WIND PRES REMARKS GEORGETOWN NOT AVBL KINGSTREE NOT AVBL ORANGEBURG CLEAR 72 70 93 CALM 30.11S BARNWELL FAIR 73 72 94 CALM 30.11S AIKEN NOT AVBL MANNING FAIR 72 72 100 CALM 30.11S COLUMBIA CLEAR 74 70 87 CALM 30.09S SUMTER CLEAR 74 71 92 S3 30.09R FLORENCE CLEAR 74 72 93 S5 30.10S MYRTLE BEACH CLEAR 75 70 83 W6 30.13S N MYRTLE BEACH CLEAR 75 72 90 CALM 30.11S $$ GAZ063-065-086>088-099>101-113>116-118-119-134>141-150-071000- ...SOUTHEAST GEORGIA... CITY SKY/WX TMP DP RH WIND PRES REMARKS SAVANNAH ARPT MOCLDY 73 70 90 S5 30.12R HUNTER AAF CLEAR 73 73 100 W5 30.10R FORT STEWART PTCLDY 73 71 91 SW2 30.10S STATESBORO NOT AVBL SYLVANIA SUNNY 73 73 100 CALM 30.12S CLAXTON FAIR 73 72 94 CALM 30.12S ...CSRA...CENTRAL AND FAR SOUTHEAST GEORGIA... CITY SKY/WX TMP DP RH WIND PRES REMARKS THOMSON CLEAR 73 73 100 CALM 30.15S AUGUSTA-BUSH CLEAR 71 70 96 S3 30.09S AUGUSTA-DANIEL CLEAR 75 70 84 CALM 30.11S SWAINSBORO FAIR N/A N/A N/A CALM 30.13R VIDALIA CLEAR 72 70 94 CALM 30.13R EASTMAN FAIR 70 70 100 CALM 30.15S FOG HAZLEHURST FAIR 74 74 100 CALM 30.12S ALMA CLEAR 72 70 93 CALM 30.13R WAYCROSS CLEAR 75 74 99 CALM 30.13R JESUP FAIR 72 72 100 CALM 30.13R BAXLEY FAIR 73 72 94 CALM 30.12S BRUNSWICK CLEAR 72 72 100 W3 30.14R SAINT SIMONS PTCLDY 75 71 87 W9 30.12R $$ SCZ027-028-034-036>038-045-046-048>050-GAZ119-141-071000- ...LAKE AND SUPPLEMENTAL COASTAL OBSERVATIONS... STATION/POSITION TIME TEMP WIND PRES WAVE SWELL AIR SEA DIR/SP/G HT/PER HT/PER/DIR (UTC) (F) (DEG/KT/KT) (MB) (FT/S) (FT/S/D) UPR LAKE MARION NOT AVBL WINYAH BAY 0745 75 260/ 3 1018.0 LAKE MURRAY 0800 78 230/ 4/ 6 1018.3F ACE BASIN NERRS NOT AVBL FORT PULASKI 0800 76 83 240/ 4/ 5 1020.0R SAPELO ISLAND 0800 77 230/ 7 1020.0R $$ ANZ835-935-AMZ111-154-330-350-352-354-370-450-454-472-071000- ...C-MAN AND BUOY OBSERVATIONS... STATION/POSITION TIME TEMP WIND PRES WAVE SWELL AIR SEA DIR/SP/G HT/PER HT/PER/DIR (UTC) (F) (DEG/KT/KT) (MB) (FT/S) (FT/S/D) BUOY 41004 0850 80 83 240/ 10/ 12 1019.5R 3/ 8 3/ 8 BUOY 41008 0850 78 79 240/ 10/ 12 1020.3R 2/ 8 2/120/ 8 FOLLY BEACH CMAN 0800 79 230/ 5/ 6 1019.5R CAPERS NEARSHORE 0808 81 260/ 12/ 16 1019.6R FRIPP NEARSHORE 0800 81 290/ 10/ 12 1019.2R STATION/POSITION TIME TEMP WIND PRES WAVE SWELL AIR SEA DIR/SP/G HT/PER HT/PER/DIR (UTC) (F) (DEG/KT/KT) (MB) (FT/S) (FT/S/D) 5E ST. MARYS GA 0821 77 N/A 2/ 9 FRYING PAN BUOY 0850 81 79 240/ 10/ 10 1020.3R 3/ 8 2/120/ 8 BUOY 41025 0850 81 83 210/ 12/ 12 1019.7R 3/ 8 2/100/ 8 CAPE LOOKOUT NC 0800 79 220/ 7/ 10 1019.3R BUOY 41002 0850 82 80 210/ 8/ 10 1021.6R 4/ 8 3/120/ 8 BUOY 41010 0820 83 83 160/ 10/ 12 1020.1R ST AUGUSTINE FL 0900 72 71 260/ 4/ 5 1021.4R $$

USA.gov is the U.S. government's official web portal to all federal, state and local government web resources and services.